[[{"header":{"parameterUnit":"m.s-1","parameterCategory":1,"la1":30.2991,"la2":30.254,"lo1":-89.0895,"lo2":-89.0444,"dy":0.0017,"dx":0.0017,"nx":28,"ny":28,"refTime":"2023-10-14T21:00:00:Z","depth":0,"parameterNumber":2,"parameterNumberName":"U-component_of_WINDS"},"data":[0,0,0,0,0,0,0,0,0,0,0,0,0,0,0,0,0,0,0,0,0,0,0,0,0,0,0,0,0,0,0,0,0,0,0,0,0,0,0,0,0,0,0,0,0,0,0,0,0,0,0,0,0,0,0,0,0,0,0.979,0.979,0,0.9781,0.978,0.978,0.9782,0.9782,0.9783,0.9783,0.9771,0.977,0.977,0,0,0,0,0,0,0,0,0,0,0,0,0,0.981,0.981,0.979,0.979,0.979,0.9781,0.978,0.978,0.9782,0.9782,0.9783,0.9783,0.9771,0.977,0.977,0,0,0,0,0,0,0,0,0,0,0,0,0,0.9801,0.981,0.979,0.979,0.979,0.9781,0.978,0.978,0.9782,0.9782,0.9783,0.9783,0.9771,0.9771,0.977,0.976,0,0,0.9768,0.9767,0,0,0,0,0,0,0,0,0.9802,0.98,0.979,0.979,0.979,0.9783,0.9783,0.9773,0.9782,0.9785,0.9783,0.9783,0.9775,0.9774,0.9771,0.9759,0.9759,0.9768,0.9767,0.9767,0.9767,0,0,0,0,0,0,0,0.9802,0.9801,0.9786,0.979,0.979,0.979,0.9789,0.9781,0.9778,0.9785,0.9785,0.9784,0.9775,0.9772,0.9771,0.9758,0.9768,0.9767,0.9766,0.9766,0.9739,0.9738,0,0,0,0,0,0,0.9803,0.9801,0.9787,0.9786,0.9797,0.979,0.9788,0.9785,0.9778,0.9778,0.9784,0.9784,0.9773,0.9772,0.977,0.9758,0.9767,0.9766,0.9766,0.9739,0.9739,0.9738,0,0,0,0,0,0,0.9804,0.9802,0.9787,0.9794,0.9792,0.9789,0.9785,0.9785,0.9782,0.9778,0.9777,0.9781,0.9773,0.9771,0.9763,0.9758,0.9766,0.9765,0.9739,0.9739,0.9738,0.9734,0,0,0,0,0,0,0.9804,0.9802,0.9798,0.9794,0.9792,0.978,0.9785,0.9784,0.9781,0.9781,0.9775,0.9775,0.9773,0.9764,0.9762,0.9757,0.9764,0.974,0.9739,0.9739,0.9735,0.9734,0.9733,0,0,0,0,0,0.9805,0.9797,0.9798,0.9796,0.9787,0.978,0.9778,0.9777,0.978,0.9776,0.9774,0.9775,0.9759,0.9763,0.9761,0.9756,0.974,0.9739,0.9739,0.9735,0.9734,0.9733,0,0,0,0,0,0,0.98,0.9796,0.9797,0.9788,0.9784,0.978,0.9775,0.9776,0.9771,0.9771,0.977,0.9768,0.976,0.9757,0.9761,0.9746,0.975,0.9749,0.9748,0.9747,0.9746,0.9746,0.9764,0,0,0,0,0,0.9798,0.9793,0.979,0.9781,0.978,0.9778,0.9774,0.9774,0.977,0.9768,0.9765,0.976,0.9755,0.9751,0.9745,0.9735,0.9734,0.973,0.9729,0.9729,0.9727,0.9722,0.9721,0.9736,0.9736,0.9736,0,0,0.9793,0.9791,0.9787,0.978,0.9777,0.9772,0.9776,0.977,0.9766,0.9767,0.9759,0.9756,0.9751,0.9742,0.9738,0.9739,0.9723,0.9728,0.9727,0.9726,0.9722,0.972,0.9719,0.9736,0.9736,0.9736,0,0,0.9782,0.9779,0.9773,0.977,0.9766,0.9765,0.9763,0.9759,0.9758,0.975,0.9751,0.9746,0.9736,0.9732,0.9729,0.9718,0.9719,0.9717,0.9711,0.9706,0.9705,0.9704,0.97,0.9699,0.9716,0.9716,0.9716,0,0.9776,0.9768,0.9769,0.9763,0.976,0.9762,0.9755,0.9752,0.9746,0.9744,0.9746,0.9734,0.9731,0.9721,0.9719,0.9716,0.9714,0.9717,0.9705,0.9704,0.9703,0.9699,0.9698,0.9715,0.9715,0.9715,0.9715,0,0.9762,0.9756,0.9751,0.9746,0.9743,0.9736,0.9736,0.9732,0.9733,0.9732,0.9724,0.972,0.9714,0.9712,0.9712,0.9702,0.9704,0.9706,0.9709,0.9701,0.9698,0.9696,0.9715,0.9715,0.9715,0.9715,0,0,0.9745,0.9742,0.974,0.9738,0.9735,0.973,0.9724,0.9719,0.9716,0.9713,0.9707,0.9699,0.9702,0.9698,0.9698,0.9694,0.9686,0.9696,0.9696,0.9694,0.9675,0.9673,0.9671,0.9687,0.9686,0.9686,0.9675,0,0.9734,0.9723,0.9724,0.9714,0.9709,0.9712,0.9707,0.9704,0.9703,0.9698,0.9697,0.9692,0.9695,0.9693,0.9689,0.9687,0.9682,0.9688,0.9681,0.9681,0.9682,0.9669,0.9667,0.9657,0.9674,0.9674,0.9674,0,0.9718,0.9715,0.9704,0.9702,0.97,0.9696,0.9691,0.9687,0.9684,0.9684,0.9681,0.9682,0.9676,0.9681,0.9672,0.9677,0.9674,0.9673,0.9673,0.9671,0.9676,0.9667,0.9654,0.9652,0.9671,0.9672,0.9672,0,0.9707,0.97,0.9693,0.9691,0.9689,0.9686,0.9684,0.9682,0.9679,0.9676,0.9674,0.9669,0.9667,0.9663,0.9663,0.9667,0.9655,0.9659,0.9654,0.9654,0.965,0.965,0.9636,0.965,0.965,0.965,0.965,0,0.9693,0.9686,0.9688,0.9684,0.9677,0.9678,0.9671,0.967,0.9668,0.9664,0.9666,0.9662,0.9662,0.9658,0.9658,0.9651,0.965,0.9649,0.9649,0.9649,0.9649,0.9646,0.9647,0.9649,0.965,0.965,0.965,0,0.9679,0.968,0.9672,0.9671,0.9671,0.9666,0.9665,0.9661,0.9661,0.9655,0.9654,0.9654,0.9649,0.9649,0.9643,0.9643,0.9634,0.9635,0.9636,0.9635,0.963,0.9631,0.9613,0.9611,0.9626,0.9626,0.9626,0,0.967,0.9665,0.9664,0.9661,0.966,0.9656,0.9654,0.9655,0.9652,0.965,0.9646,0.9642,0.9638,0.963,0.9629,0.9625,0.9626,0.962,0.9625,0.9625,0.9625,0.9625,0.9625,0.9619,0.9618,0.9618,0.9618,0,0.9653,0.9654,0.9651,0.9648,0.9645,0.9643,0.964,0.9638,0.964,0.9637,0.9632,0.963,0.9625,0.962,0.9616,0.9615,0.9617,0.9617,0.9615,0.9614,0.9615,0.9614,0.9632,0.9617,0.9617,0.9617,0.9617,0.9617,0.9641,0.9637,0.9636,0.9632,0.9631,0.9629,0.9626,0.9626,0.9622,0.9619,0.962,0.9615,0.9613,0.9609,0.9607,0.9603,0.9605,0.9603,0.9602,0.9602,0.9601,0.9616,0.9603,0.9603,0.9603,0.9603,0.9603,0,0.9624,0.9624,0.9621,0.9618,0.9615,0.9619,0.9617,0.9614,0.961,0.9608,0.9605,0.9601,0.9597,0.9596,0.9593,0.959,0.9591,0.9589,0.9589,0.9588,0.9599,0.9601,0.9588,0.9588,0.9588,0.9588,0.9588,0.9588,0.9615,0.9609,0.961,0.9604,0.9603,0.9599,0.9598,0.9596,0.9595,0.959,0.9587,0.9587,0.9586,0.9583,0.958,0.9579,0.9578,0.9576,0.9576,0.9586,0.9587,0.9589,0.959,0.9575,0.9575,0.9565,0.9565,0.9565]},{"header":{"parameterUnit":"m.s-1","parameterCategory":1,"la1":30.2991,"la2":30.254,"lo1":-89.0895,"lo2":-89.0444,"dy":0.0017,"dx":0.0017,"nx":28,"ny":28,"refTime":"2023-10-14T21:00:00:Z","depth":0,"parameterNumber":3,"parameterNumberName":"V-component_of_WINDS"},"data":[0,0,0,0,0,0,0,0,0,0,0,0,0,0,0,0,0,0,0,0,0,0,0,0,0,0,0,0,0,0,0,0,0,0,0,0,0,0,0,0,0,0,0,0,0,0,0,0,0,0,0,0,0,0,0,0,0,0,-6.8623,-6.8623,0,-6.8694,-6.8695,-6.8696,-6.864,-6.8637,-6.8635,-6.8633,-6.8701,-6.8705,-6.8709,0,0,0,0,0,0,0,0,0,0,0,0,0,-6.8434,-6.8438,-6.8623,-6.8623,-6.8624,-6.8694,-6.8695,-6.8696,-6.864,-6.8637,-6.8634,-6.8632,-6.87,-6.8705,-6.871,0,0,0,0,0,0,0,0,0,0,0,0,0,-6.8512,-6.8439,-6.8622,-6.8605,-6.8604,-6.8694,-6.8695,-6.8696,-6.8641,-6.8637,-6.8633,-6.863,-6.8698,-6.8704,-6.871,-6.882,0,0,-6.8729,-6.8732,0,0,0,0,0,0,0,0,-6.8507,-6.8518,-6.8607,-6.8606,-6.8606,-6.8654,-6.8654,-6.8737,-6.8642,-6.8627,-6.8633,-6.8628,-6.8688,-6.8695,-6.8716,-6.8823,-6.8826,-6.8729,-6.8733,-6.8736,-6.8738,0,0,0,0,0,0,0,-6.8502,-6.8515,-6.8651,-6.8608,-6.8607,-6.8592,-6.8599,-6.8669,-6.8677,-6.8628,-6.8624,-6.8633,-6.8687,-6.871,-6.8717,-6.8827,-6.8729,-6.8735,-6.8738,-6.8741,-6.9028,-6.9032,0,0,0,0,0,0,-6.8499,-6.8511,-6.8648,-6.8653,-6.8547,-6.8599,-6.8607,-6.8642,-6.8676,-6.8677,-6.8636,-6.863,-6.8702,-6.871,-6.872,-6.8851,-6.8736,-6.8741,-6.8745,-6.9024,-6.9029,-6.9033,0,0,0,0,0,0,-6.8495,-6.8512,-6.8646,-6.8581,-6.8597,-6.8606,-6.8646,-6.8646,-6.8669,-6.8682,-6.8683,-6.8659,-6.8699,-6.8711,-6.8796,-6.8853,-6.8744,-6.875,-6.902,-6.9026,-6.9031,-6.9114,0,0,0,0,0,0,-6.849,-6.8511,-6.8553,-6.8582,-6.8601,-6.8722,-6.865,-6.865,-6.868,-6.8673,-6.8704,-6.8705,-6.8697,-6.8787,-6.8802,-6.8859,-6.8754,-6.9015,-6.9022,-6.9029,-6.9106,-6.9122,-6.9136,0,0,0,0,0,-6.8483,-6.8572,-6.8555,-6.8572,-6.8654,-6.8725,-6.8736,-6.8726,-6.8685,-6.8727,-6.8736,-6.8704,-6.8844,-6.8796,-6.8812,-6.8872,-6.9011,-6.902,-6.9029,-6.91,-6.9119,-6.9136,0,0,0,0,0,0,-6.8547,-6.8575,-6.8557,-6.8659,-6.869,-6.8716,-6.8769,-6.8747,-6.8789,-6.8781,-6.8766,-6.8773,-6.8863,-6.8876,-6.8822,-6.898,-6.8921,-6.8933,-6.8969,-6.8988,-6.9002,-6.8997,-6.876,0,0,0,0,0,-6.8573,-6.863,-6.8651,-6.8738,-6.8756,-6.876,-6.879,-6.8781,-6.8812,-6.8825,-6.884,-6.887,-6.8921,-6.8955,-6.9002,-6.9108,-6.9114,-6.9157,-6.9172,-6.9184,-6.9195,-6.9253,-6.9273,-6.9063,-6.9063,-6.9063,0,0,-6.8627,-6.865,-6.8686,-6.8752,-6.8775,-6.8834,-6.8771,-6.8835,-6.8878,-6.8834,-6.8916,-6.8928,-6.8961,-6.9058,-6.91,-6.9071,-6.9254,-6.9195,-6.9205,-6.9209,-6.9264,-6.9284,-6.9302,-6.9069,-6.9068,-6.9067,0,0,-6.8755,-6.8778,-6.8854,-6.888,-6.8917,-6.8919,-6.8938,-6.8967,-6.8974,-6.9057,-6.9025,-6.9075,-6.9163,-6.9188,-6.9213,-6.9353,-6.9326,-6.9369,-6.9445,-6.9502,-6.9519,-6.9533,-6.9584,-6.9603,-6.938,-6.938,-6.938,0,-6.8817,-6.8906,-6.8896,-6.8963,-6.8993,-6.8958,-6.9035,-6.9059,-6.9109,-6.913,-6.9096,-6.9207,-6.9227,-6.9329,-6.9364,-6.9384,-6.9405,-6.9365,-6.9517,-6.9532,-6.9545,-6.9594,-6.9613,-6.9385,-6.9384,-6.9384,-6.9383,0,-6.8981,-6.9042,-6.9099,-6.9151,-6.9187,-6.9259,-6.9259,-6.9297,-6.9284,-6.929,-6.9375,-6.9397,-6.945,-6.9473,-6.946,-6.9574,-6.9555,-6.952,-6.9459,-6.9571,-6.9616,-6.9634,-6.9392,-6.939,-6.9389,-6.9388,0,0,-6.915,-6.9198,-6.9219,-6.9243,-6.9282,-6.9328,-6.9398,-6.9451,-6.9485,-6.952,-6.9579,-6.9655,-6.9623,-6.9651,-6.9641,-6.969,-6.9802,-6.9649,-6.965,-6.9678,-6.993,-6.9957,-6.9978,-6.9784,-6.9787,-6.979,-6.9927,0,-6.9282,-6.9406,-6.94,-6.9516,-6.9573,-6.9541,-6.9602,-6.9632,-6.9639,-6.9688,-6.9695,-6.975,-6.9704,-6.9721,-6.9769,-6.9778,-6.9852,-6.9768,-6.9837,-6.984,-6.9831,-7.0002,-7.003,-7.0159,-6.9945,-6.9948,-6.995,0,-6.9452,-6.9496,-6.9619,-6.9651,-6.9674,-6.973,-6.9779,-6.9826,-6.9859,-6.9861,-6.9894,-6.9876,-6.9946,-6.9884,-6.998,-6.9923,-6.9951,-6.996,-6.9965,-6.9971,-6.9902,-7.0014,-7.0199,-7.0219,-6.9977,-6.9975,-6.9973,0,-6.9565,-6.9655,-6.974,-6.9761,-6.9801,-6.9841,-6.9858,-6.9889,-6.9921,-6.9963,-6.9985,-7.0033,-7.006,-7.0098,-7.0094,-7.0049,-7.0193,-7.013,-7.0196,-7.0196,-7.0228,-7.0226,-7.0422,-7.0245,-7.0245,-7.0244,-7.0244,0,-6.9713,-6.9789,-6.9792,-6.9845,-6.9929,-6.9921,-7.0005,-7.0018,-7.0045,-7.0099,-7.0073,-7.0124,-7.0115,-7.0166,-7.0162,-7.0244,-7.0255,-7.0259,-7.0257,-7.0262,-7.0262,-7.028,-7.0271,-7.0249,-7.0248,-7.0247,-7.0246,0,-6.9854,-6.9859,-6.995,-6.9981,-6.999,-7.0051,-7.0077,-7.0126,-7.0132,-7.0201,-7.0216,-7.0225,-7.0284,-7.0283,-7.0349,-7.0347,-7.0447,-7.0434,-7.0436,-7.0434,-7.0501,-7.0495,-7.0716,-7.0745,-7.0548,-7.055,-7.0552,0,-6.9948,-7.0007,-7.0045,-7.008,-7.0101,-7.0158,-7.0192,-7.0186,-7.0222,-7.0266,-7.031,-7.0367,-7.0412,-7.0507,-7.0518,-7.0569,-7.0558,-7.0632,-7.0565,-7.0568,-7.056,-7.0557,-7.0563,-7.0645,-7.0647,-7.0649,-7.065,0,-7.0116,-7.0116,-7.0167,-7.022,-7.0262,-7.0303,-7.034,-7.037,-7.0368,-7.041,-7.0471,-7.0506,-7.0575,-7.0631,-7.068,-7.0697,-7.0674,-7.0671,-7.0689,-7.0695,-7.0694,-7.0697,-7.0473,-7.0666,-7.0664,-7.0663,-7.0662,-7.0662,-7.0237,-7.0289,-7.0324,-7.0382,-7.041,-7.0446,-7.0495,-7.0508,-7.0559,-7.0616,-7.0609,-7.0677,-7.0709,-7.0773,-7.0795,-7.0847,-7.0821,-7.0847,-7.0854,-7.086,-7.0868,-7.0686,-7.0855,-7.0855,-7.0854,-7.0854,-7.0854,0,-7.0405,-7.0427,-7.048,-7.0535,-7.0581,-7.0556,-7.0597,-7.0636,-7.0697,-7.073,-7.0776,-7.0846,-7.0901,-7.0918,-7.0971,-7.101,-7.1,-7.1024,-7.1021,-7.1026,-7.0888,-7.0868,-7.1031,-7.1031,-7.1031,-7.1031,-7.1031,-7.1031,-7.0498,-7.0584,-7.0588,-7.0688,-7.0708,-7.0776,-7.0802,-7.0835,-7.0861,-7.0942,-7.0988,-7.0999,-7.1026,-7.1081,-7.113,-7.1133,-7.1154,-7.1183,-7.1182,-7.1053,-7.1035,-7.1018,-7.0999,-7.1187,-7.1187,-7.1315,-7.1317,-7.1318]}]]